FALCON 9 R/B, 43179

Orbit data source: Space-Track

FALCON 9 R/B, 43179 is space debris in HEO originally from a launch on Wed, 31 Jan 2018 UTC launched from the Air Force Eastern Test Range (AFETR). Debris objects in space refer to the collection of defunct objects orbiting the Earth. Examples of debris include non-operational satellites, rocket bodies, and fragments generated from explosions, collisions, or faulty payload assembly.

Loading next visibility...
Identifier
43179, 2018-013B
Orbit
HEO
Country
Flag of USUS
Related business
Manufacturer
SpaceX
Mission
Spacecraft
Bus & Motor
F9ST2, Unknown motor
Mass
~4,000 kg wet, ~4,000 kg dry
Launch date (UTC)
2018-01-31 (8 years ago)
Launch vehicle
Unknown
Launch site
Air Force Eastern Test Range (AFETR)
Object type
Payload
Rocket body
Debris
Shape & HBR
Cyl, 7.8 m
Radar Cross Section
39.980 m², Large (>1 m²)

Expand to show TLE details & history
Last TLE update: 3 days ago

TLE from 3 days ago
0 FALCON 9 R/B
1 43179U 18013B   26170.86632432  .00008188  00000-0  63063-3 0  9993
2 43179  23.6421 101.8171 7165460 285.4393  11.2666  2.45563101 54521
Epoch: 2026-06-19T20:47Z
TLE epoch observation values (Epoch: 2026-06-19T20:47:30.421Z)
Latitude
-0.00006°
Longitude
-118.24886°
Altitude
3,115.901 km
Speed
8.172 km/s
True Right ascension
06h 46m 52s
True Declination
0° 00' 00"
Sunlit
Object was in daylight at epoch
Visualization orbit readout
Latitude
Unknown
Longitude
Unknown
Altitude
Unknown
Speed
Unknown
Apparent Right ascension
Unknown
Apparent Declination
Unknown
Sunlit
N/A
Visualization observer readout
Local Sidereal Time
00:55:23
Azimuth
Unknown
Elevation
Unknown
Doppler factor
Unknown
Orbital elements
Apogee altitude
33,465.736 km
Perigee altitude
201.299 km
Semi-major axis
23,211.655 km
Eccentricity
0.71655
Inclination
23.6421°
RAAN
101.8171°
Arg. of periapsis
285.4393°
True anomaly
74.85306°
Mean anomaly
11.2666°
Eccentric anomaly
34.5499°
Mean motion
0.61374 °/min
Orbital period
586.57 mins
BSTAR
0.00063063
Loading maneuver chart data...
Computing Atmospheric mass density...
Loading historical data...
Loading historical data...
Loading historical data...
Loading historical data...
Loading historical data...
Loading historical data...
Loading historical data...
Other satellites on launch #13 in the year 2018 (2018-01-31 UTC)

Documentation

Showing up to 5 results
|